Temperature
2 3 3 3 3 3 3 3 3 4 4 5 5 4 5 5 5 5 5 5 5 5 5 5 5 5 5 5 5 4 4 4 4 4 4 4 4 4 4 4 4 4 4 4
2 3 2 3 3 3 3 3 3 3 4 4 5 5 4 5 5 4 5 5 5 5 5 5 5 5 5 4 4 4 4 4 4 4 4 4 3 3 3 3 3 3 4 4
1 2 2 2 3 3 3 3 3 3 4 4 3 3 4 4 4 4 5 5 5 5 5 5 5 5 4 4 4 4 4 4 3 3 3 3 3 3 3 3 3 3 3 3
1 1 1 3 3 3 3 3 3 3 3 3 3 4 5 5 5 5 5 5 5 5 5 5 4 4 4 4 4 4 3 3 3 3 3 3 3 3 3 3 3 3 3 3
0 0 1 2 2 2 2 2 2 2 2 2 2 3 4 5 4 4 4 5 5 5 4 4 4 4 4 4 4 3 3 3 3 3 3 2 2 2 2 2 2 2 2 2
-0 1 2 2 2 2 2 2 2 1 1 1 1 1 3 4 4 4 4 4 4 4 4 4 4 4 3 3 3 3 3 2 2 2 2 2 2 2 2 2 2 2 2 2
-1 -0 1 1 1 2 2 2 2 2 2 1 1 2 3 3 3 3 4 4 4 4 3 3 3 3 3 3 3 2 2 2 2 2 2 2 2 2 2 2 1 1 1 1
-1 -1 0 0 0 0 1 2 2 2 2 1 1 2 2 2 3 3 3 3 3 3 3 3 2 2 2 2 2 2 2 2 1 1 1 1 1 1 1 1 1 1 1 1
-1 0 1 1 1 1 1 1 1 1 1 1 1 1 1 1 2 2 2 2 2 2 2 2 1 1 1 1 1 1 1 1 1 1 1 1 1 1 0 0 0 0 0 0
-2 -1 -1 -0 0 0 0 0 1 1 1 1 1 1 1 1 1 1 1 1 1 1 1 1 1 1 1 1 1 1 1 0 0 0 0 0 0 -0 -0 -0 -0 -0 -1 -1
-2 -2 -1 -0 -0 -0 -0 -0 0 0 0 0 0 0 0 -0 0 0 0 0 0 0 0 0 -0 -0 -0 -0 -0 0 -0 -0 -0 -0 -0 -0 -0 -1 -1 -1 -1 -1 -1 -1
-2 -2 -2 -1 -1 -1 -1 -1 -1 -1 -1 -0 -0 -1 -1 -1 -0 -0 -0 -0 -0 -0 -0 -1 -1 -1 -1 -1 -1 -1 -1 -1 -1 -1 -1 -1 -1 -1 -1 -1 -1 -2 -2 -2
-2 -2 -2 -2 -1 -1 -2 -2 -1 -1 -1 -1 -1 -1 -1 -1 -1 -1 -1 -1 -1 -1 -1 -1 -1 -1 -1 -1 -1 -1 -1 -1 -1 -1 -1 -1 -2 -2 -2 -2 -2 -2 -2 -2
-3 -3 -3 -2 -2 -2 -2 -2 -2 -2 -2 -2 -2 -2 -2 -2 -2 -2 -2 -2 -2 -2 -2 -2 -2 -2 -2 -2 -2 -1 -2 -2 -2 -2 -2 -2 -2 -3 -3 -3 -2 -2 -2 -3
-3 -3 -3 -3 -3 -2 -2 -2 -2 -2 -2 -2 -2 -2 -2 -2 -2 -2 -2 -2 -2 -2 -2 -2 -2 -3 -3 -2 -2 -2 -2 -2 -2 -3 -3 -3 -3 -3 -3 -4 -4 -4 -3 -3
-4 -4 -4 -4 -3 -3 -3 -3 -3 -3 -3 -3 -3 -3 -3 -3 -3 -3 -3 -3 -3 -3 -3 -3 -3 -3 -3 -3 -3 -3 -3 -3 -3 -3 -4 -4 -4 -4 -4 -4 -4 -4 -4 -4
-5 -5 -5 -4 -4 -4 -4 -4 -4 -4 -4 -4 -3 -3 -3 -4 -4 -4 -4 -4 -4 -4 -4 -4 -4 -4 -4 -4 -4 -4 -4 -4 -4 -4 -4 -4 -5 -5 -5 -5 -5 -5 -5 -5
-5 -5 -5 -5 -5 -5 -5 -5 -5 -5 -5 -4 -4 -4 -4 -4 -4 -4 -4 -4 -4 -4 -4 -5 -5 -5 -5 -5 -4 -5 -5 -5 -5 -5 -5 -5 -5 -6 -6 -6 -6 -6 -6 -6
-5 -5 -5 -5 -5 -5 -5 -5 -5 -5 -5 -5 -5 -5 -5 -5 -5 -5 -5 -5 -5 -5 -5 -5 -5 -5 -5 -5 -5 -5 -5 -5 -5 -6 -6 -6 -6 -6 -6 -6 -6 -6 -6 -6
-6 -6 -6 -6 -6 -6 -6 -6 -6 -6 -5 -5 -5 -5 -5 -6 -6 -6 -6 -5 -6 -6 -6 -6 -6 -6 -6 -6 -6 -6 -6 -6 -6 -6 -6 -6 -6 -6 -7 -7 -7 -7 -7 -7
-7 -6 -6 -6 -6 -6 -6 -6 -6 -6 -6 -6 -6 -6 -6 -6 -6 -6 -6 -6 -6 -6 -6 -6 -6 -6 -6 -6 -6 -6 -6 -7 -7 -7 -7 -7 -7 -7 -7 -7 -7 -7 -7 -7
-7 -7 -7 -7 -7 -7 -7 -7 -7 -7 -7 -7 -7 -7 -7 -7 -7 -7 -7 -7 -7 -7 -7 -7 -7 -7 -7 -7 -7 -7 -7 -7 -7 -7 -7 -7 -7 -7 -7 -7 -7 -7 -7 -7
-8 -8 -8 -8 -8 -8 -8 -8 -8 -8 -8 -8 -8 -8 -8 -8 -8 -8 -8 -7 -8 -8 -7 -7 -7 -8 -8 -8 -7 -7 -7 -7 -7 -7 -8 -8 -8 -8 -8 -8 -8 -8 -8 -8
-8 -8 -8 -8 -8 -8 -8 -8 -8 -8 -9 -8 -8 -8 -8 -8 -8 -8 -8 -8 -8 -8 -8 -8 -8 -8 -8 -8 -8 -8 -8 -8 -8 -8 -8 -8 -8 -8 -8 -8 -8 -8 -8 -8
-9 -9 -9 -9 -9 -9 -9 -9 -9 -9 -9 -9 -9 -9 -9 -9 -9 -9 -9 -9 -9 -9 -9 -9 -9 -9 -9 -9 -9 -9 -9 -9 -9 -9 -9 -8 -8 -8 -8 -8 -8 -8 -8 -8
-9 -9 -9 -9 -10 -10 -10 -10 -10 -10 -10 -10 -9 -9 -10 -10 -10 -10 -10 -10 -10 -10 -9 -9 -9 -9 -9 -9 -9 -9 -9 -9 -9 -9 -9 -9 -9 -9 -9 -9 -9 -9 -9 -9
-10 -10 -10 -10 -10 -10 -10 -10 -10 -10 -10 -10 -10 -10 -10 -10 -10 -10 -10 -10 -10 -10 -10 -10 -10 -10 -10 -10 -10 -10 -10 -10 -9 -9 -9 -9 -9 -9 -9 -9 -9 -9 -9 -9
Wind_Speed
9 8 7 10 11 9 9 10 10 11 12 13 10 9 8 7 6 4 4 5 5 4 4 3 2 2 2 2 2 3 3 3 2 2 2 1 1 1 2 2 3 3 3 3
8 8 8 11 13 13 12 10 11 13 15 11 9 7 7 6 6 6 6 6 5 4 4 3 3 3 2 2 2 3 3 2 2 1 1 1 1 1 1 1 2 2 3 3
7 5 5 10 11 12 9 8 8 12 12 6 6 8 8 7 6 7 7 6 5 5 4 4 4 4 4 3 2 3 2 2 1 1 1 1 1 1 1 1 2 2 3 4
4 2 9 8 2 5 7 7 6 7 7 6 8 9 7 5 5 6 6 5 5 4 3 3 3 2 2 2 3 3 2 1 1 1 1 1 1 1 1 1 2 2 3 3
3 5 9 7 3 2 4 6 2 5 8 7 7 6 6 3 3 5 5 4 4 3 3 2 2 2 3 2 2 2 2 1 1 1 1 1 1 1 1 0 0 1 1 2
4 5 7 4 5 4 2 5 3 5 7 7 5 4 6 5 4 4 3 2 1 0 1 1 1 2 3 3 2 1 1 1 1 1 1 1 1 1 0 0 0 1 1 1
6 7 7 4 5 2 2 6 7 5 6 5 4 6 6 5 4 3 2 2 1 2 2 1 1 3 3 2 1 1 1 1 1 1 1 1 1 1 1 1 1 1 2 2
4 5 7 3 2 2 5 6 6 7 6 5 6 7 5 4 3 3 3 3 3 2 2 2 2 3 3 1 0 1 2 2 1 1 1 2 2 2 2 2 2 2 2 3
6 6 5 3 4 5 4 6 6 6 7 5 5 5 4 3 3 3 3 3 2 2 2 2 2 2 2 0 1 2 3 2 2 2 2 2 2 2 2 1 1 1 1 2
6 8 8 7 6 6 6 7 7 6 6 4 4 4 3 3 3 3 3 2 2 3 3 3 3 2 1 1 2 3 3 2 2 3 3 3 2 1 1 0 0 1 1 2
8 8 8 7 6 7 7 7 6 6 5 4 3 3 2 2 2 2 2 2 2 2 2 2 3 3 3 2 3 3 3 2 2 2 2 3 2 2 1 1 1 1 2 2
8 7 7 10 8 7 7 8 7 6 6 4 2 2 1 2 2 1 1 2 2 3 3 3 3 3 3 3 3 3 2 2 2 2 2 2 2 3 4 2 3 3 3 3
7 7 7 9 9 7 7 7 6 5 5 4 3 1 0 1 1 1 2 2 2 2 3 3 4 4 4 3 2 3 2 1 1 1 1 2 2 2 3 4 5 4 4 4
6 6 6 7 8 7 6 5 4 4 3 2 2 1 1 2 2 3 3 2 3 3 3 3 4 4 3 3 3 3 2 2 2 1 1 1 1 1 1 2 3 4 5 6
6 6 6 6 6 6 5 4 3 3 3 3 2 2 3 3 3 3 3 3 4 4 4 4 4 4 4 3 3 3 2 2 1 1 1 1 1 1 2 2 2 3 4 4
8 7 6 6 6 6 5 5 3 3 3 3 3 3 2 3 3 3 4 4 4 3 3 3 3 3 3 3 3 3 2 3 3 1 1 2 2 2 2 2 2 3 3 4
6 7 7 7 6 5 4 4 3 3 2 2 2 2 3 4 4 4 4 4 4 3 3 3 3 3 4 3 3 2 2 2 4 2 2 2 2 1 2 2 2 3 3 4
4 5 5 4 4 4 4 4 3 3 2 2 3 4 4 4 3 3 3 4 4 5 4 4 3 3 3 3 2 2 2 2 2 2 2 2 2 2 2 2 3 3 4 4
6 5 5 5 4 3 3 3 3 3 3 3 3 3 3 3 3 3 3 4 4 4 4 4 5 4 4 4 4 2 1 2 2 2 2 3 3 2 2 2 3 3 4 4
7 7 6 6 6 4 4 3 3 3 3 3 3 3 3 3 3 3 3 3 2 2 3 4 4 3 3 3 4 2 1 2 2 2 2 2 2 3 3 3 3 4 4 4
7 7 7 7 6 6 5 5 4 4 4 3 3 3 3 3 3 3 3 3 3 3 3 5 3 3 3 3 4 2 2 2 2 2 2 3 3 3 3 3 4 4 4 4
6 6 7 7 6 6 6 5 5 4 5 4 4 3 3 3 3 3 2 1 3 5 4 3 3 4 5 5 2 2 2 2 2 2 3 3 3 3 4 4 4 4 4 4
5 6 6 6 6 5 6 6 5 5 4 4 4 3 3 2 2 2 3 3 3 6 4 3 5 7 7 4 2 2 2 3 3 3 3 3 3 4 4 4 4 4 4 4
5 6 6 6 5 6 6 6 5 4 4 4 4 3 3 2 2 2 2 5 7 7 4 5 8 7 7 3 2 2 3 3 3 3 3 4 3 4 4 4 5 5 5 5
5 5 6 6 6 5 5 5 5 5 4 4 4 4 3 2 2 3 3 4 6 6 4 6 8 7 5 3 3 3 3 4 4 4 3 3 4 4 4 4 5 5 5 5
5 4 4 4 4 4 4 4 4 4 4 4 4 4 3 3 3 3 3 4 5 6 5 4 4 5 3 4 4 4 4 4 5 4 4 4 4 4 4 5 5 5 5 5
5 4 4 4 4 4 4 4 4 4 4 4 4 4 4 4 4 4 4 4 4 4 4 4 4 4 4 4 4 4 4 4 4 4 4 4 4 4 5 5 5 5 5 5
Wind_Direction
261 270 264 263 260 248 235 233 236 252 257 271 277 277 277 277 276 270 272 267 248 239 237 234 230 231 213 203 192 179 170 173 186 184 172 169 195 221 222 218 223 212 203 206
277 266 258 266 257 247 246 245 247 262 269 268 272 278 273 267 261 261 263 261 247 239 234 230 223 220 204 196 184 166 170 182 180 172 168 174 199 205 219 223 225 212 208 204
270 284 299 267 241 230 233 227 218 243 258 280 285 279 268 258 255 257 259 259 247 239 235 231 222 205 197 191 168 149 152 163 165 164 174 206 206 162 222 224 214 222 222 212
261 282 247 253 248 218 231 251 237 254 279 285 278 283 274 254 252 264 266 258 251 245 243 242 217 186 170 157 153 152 152 166 169 163 181 190 177 194 211 216 214 230 232 224
216 242 267 289 297 252 237 269 272 275 296 312 320 317 293 270 263 262 263 260 248 233 224 220 192 162 142 132 137 142 155 181 184 172 174 181 202 218 211 164 303 272 243 223
215 237 251 271 310 293 222 264 306 297 295 308 330 307 288 311 305 298 306 301 276 181 124 133 169 142 134 132 128 159 190 201 182 168 167 185 214 205 119 94 351 343 333 308
228 244 261 285 312 13 184 277 314 297 286 290 267 261 288 306 307 316 332 348 46 94 97 106 111 122 126 126 147 196 134 101 73 72 91 99 76 62 69 62 52 34 5 352
214 233 255 306 36 205 263 301 309 302 294 291 290 293 299 311 323 352 6 20 49 84 74 49 78 111 112 126 148 90 87 79 66 59 63 63 70 49 56 68 60 35 24 5
215 238 282 289 273 282 301 302 301 300 299 297 300 301 314 328 341 359 15 24 43 89 82 53 54 95 112 33 72 86 83 71 61 55 55 62 77 73 61 63 63 20 11 349
264 272 288 289 290 300 300 294 294 298 300 300 293 307 326 338 349 2 11 24 40 70 74 49 39 52 66 46 73 86 82 69 62 61 49 49 52 58 74 87 39 344 325 318
270 285 307 298 294 297 303 308 310 313 309 305 305 309 316 322 332 354 17 32 51 75 77 50 42 43 37 49 80 84 77 66 58 60 62 47 36 21 352 291 241 259 271 269
270 281 281 288 298 300 298 302 303 308 315 316 297 280 307 319 326 356 49 57 57 63 67 54 52 42 31 42 81 93 78 64 60 59 58 53 40 19 11 354 345 334 314 304
276 293 287 289 299 301 294 294 298 299 295 301 303 267 251 328 2 58 65 70 71 72 70 64 59 44 25 30 66 88 85 61 59 54 48 36 30 23 3 4 7 3 355 345
309 312 303 304 304 310 310 308 314 319 320 317 326 19 58 58 64 69 63 61 72 75 70 67 63 43 21 33 55 63 62 40 39 49 34 21 11 355 343 342 345 350 350 349
323 317 299 311 327 335 337 341 350 351 356 5 26 51 67 71 63 54 54 64 70 65 58 59 55 29 19 36 50 52 47 36 31 26 12 6 358 351 346 342 336 332 338 345
319 325 329 334 337 345 354 357 355 347 356 13 38 46 59 76 71 61 56 61 69 58 45 46 38 18 20 36 40 39 35 18 16 19 13 5 1 354 342 340 338 335 333 331
332 334 331 328 328 333 338 346 354 359 13 25 32 51 67 72 68 59 53 52 59 51 38 36 25 18 26 30 34 30 23 13 9 12 13 357 345 332 324 325 323 322 321 324
311 309 314 314 316 327 340 357 9 13 21 33 50 59 65 67 62 53 54 56 53 41 29 26 24 24 25 19 22 23 18 9 4 355 347 343 330 319 318 316 315 314 317 325
348 348 349 353 354 354 354 356 359 4 19 45 58 61 64 64 57 49 51 53 45 25 6 10 13 21 16 8 10 15 9 0 350 340 333 328 332 328 321 313 309 309 311 316
3 8 11 9 10 11 6 5 14 22 27 47 58 58 54 47 46 46 47 43 20 344 343 355 3 1 354 351 357 359 350 339 331 325 322 319 314 312 311 311 311 310 308 307
2 6 9 11 12 14 17 20 28 24 21 37 48 43 36 26 31 39 39 13 354 354 355 353 356 343 337 340 348 347 336 327 321 314 311 307 304 303 305 307 309 309 308 307
2 6 6 9 15 13 13 18 26 27 28 31 34 35 33 23 21 24 22 346 338 345 351 346 340 336 339 342 346 335 324 316 310 305 299 296 295 297 298 299 300 302 301 299
2 5 5 7 9 7 11 17 21 24 25 22 19 17 15 4 0 1 346 348 344 340 343 334 331 334 337 348 343 330 318 308 303 299 295 293 291 288 289 291 293 295 295 297
1 3 1 1 8 16 12 7 10 12 12 9 9 8 4 0 358 353 326 332 340 339 338 330 333 334 338 343 328 318 310 304 300 297 296 295 294 293 291 290 291 292 290 291
357 358 0 1 5 1 354 354 1 5 6 5 2 0 358 352 330 325 330 330 334 336 331 332 336 336 336 321 314 305 298 291 290 294 293 297 296 293 290 289 288 287 287 287
354 352 349 348 344 343 346 350 353 350 350 349 347 345 344 342 333 327 324 324 322 328 328 322 323 326 320 310 305 302 298 301 306 303 296 295 294 292 290 290 288 286 285 284
350 348 347 349 352 352 348 346 343 338 338 335 329 332 336 334 330 327 322 319 319 319 316 315 315 312 310 307 305 305 304 302 299 297 296 293 291 289 288 286 286 285 286 287
Height
1486 1484 1484 1481 1479 1479 1480 1477 1476 1467 1464 1456 1454 1452 1450 1449 1448 1447 1445 1445 1444 1444 1444 1444 1444 1444 1444 1445 1445 1446 1447 1448 1449 1449 1450 1450 1451 1451 1452 1453 1454 1455 1456 1457
1486 1481 1480 1478 1473 1472 1471 1470 1468 1464 1458 1452 1451 1449 1447 1446 1445 1444 1442 1441 1441 1441 1441 1441 1441 1441 1442 1442 1443 1443 1444 1445 1446 1447 1447 1448 1449 1449 1449 1450 1450 1451 1452 1453
1485 1480 1477 1473 1464 1463 1463 1460 1460 1458 1452 1449 1448 1446 1444 1443 1442 1440 1439 1439 1438 1437 1438 1438 1438 1438 1439 1439 1440 1441 1442 1443 1444 1444 1445 1445 1446 1446 1446 1446 1447 1448 1449 1450
1484 1482 1480 1461 1455 1455 1456 1454 1454 1452 1449 1448 1446 1443 1441 1439 1439 1437 1437 1436 1435 1435 1435 1435 1435 1436 1436 1437 1438 1439 1440 1440 1441 1442 1442 1443 1443 1443 1443 1443 1444 1444 1445 1446
1483 1480 1468 1459 1456 1456 1455 1452 1451 1450 1448 1446 1443 1440 1437 1436 1435 1435 1434 1433 1433 1432 1433 1433 1433 1433 1434 1434 1435 1436 1437 1438 1439 1439 1440 1440 1440 1440 1441 1440 1441 1441 1442 1443
1480 1475 1466 1458 1454 1451 1452 1451 1448 1447 1445 1444 1443 1443 1436 1434 1433 1432 1431 1431 1430 1430 1430 1431 1431 1431 1431 1432 1433 1434 1435 1436 1437 1437 1437 1438 1438 1438 1438 1438 1438 1439 1439 1440
1476 1472 1462 1457 1453 1451 1456 1451 1445 1443 1442 1441 1441 1439 1436 1433 1431 1430 1429 1429 1428 1428 1428 1429 1429 1429 1430 1430 1431 1432 1433 1434 1435 1435 1435 1435 1436 1436 1436 1436 1436 1436 1436 1437
1472 1471 1463 1454 1453 1454 1451 1447 1444 1441 1440 1438 1436 1434 1432 1430 1429 1428 1427 1427 1426 1426 1427 1427 1428 1428 1428 1429 1429 1430 1431 1432 1432 1433 1433 1434 1434 1434 1434 1434 1434 1434 1434 1434
1464 1460 1453 1451 1451 1449 1447 1445 1442 1440 1438 1436 1434 1432 1430 1429 1428 1427 1427 1426 1426 1426 1426 1426 1427 1427 1427 1428 1428 1429 1429 1430 1431 1431 1432 1432 1432 1432 1432 1432 1432 1432 1432 1432
1460 1453 1451 1449 1448 1446 1444 1442 1440 1438 1436 1434 1432 1430 1429 1428 1427 1426 1426 1426 1426 1425 1425 1426 1426 1426 1426 1427 1427 1427 1428 1429 1429 1430 1430 1430 1431 1431 1430 1430 1430 1430 1430 1430
1457 1452 1448 1445 1444 1443 1441 1439 1436 1434 1433 1431 1430 1429 1428 1427 1426 1426 1426 1426 1425 1425 1425 1425 1426 1426 1426 1426 1427 1427 1427 1428 1428 1428 1428 1429 1429 1429 1429 1429 1429 1429 1429 1429
1453 1449 1448 1443 1441 1440 1438 1435 1433 1432 1430 1429 1428 1427 1426 1426 1425 1425 1425 1425 1425 1425 1425 1425 1426 1426 1426 1426 1426 1426 1426 1427 1427 1427 1427 1427 1427 1427 1427 1428 1427 1427 1427 1427
1448 1446 1443 1440 1437 1436 1434 1432 1430 1429 1427 1426 1426 1425 1425 1424 1424 1424 1424 1424 1425 1425 1425 1426 1426 1426 1427 1427 1426 1426 1426 1426 1426 1426 1426 1426 1426 1425 1425 1425 1425 1425 1425 1425
1445 1443 1439 1436 1434 1432 1431 1429 1428 1426 1425 1424 1424 1423 1423 1423 1424 1424 1424 1424 1425 1425 1425 1426 1426 1426 1426 1426 1426 1426 1426 1426 1425 1425 1425 1425 1424 1424 1424 1423 1422 1422 1423 1423
1443 1441 1438 1434 1432 1430 1428 1426 1425 1424 1423 1423 1422 1422 1423 1423 1423 1424 1424 1425 1425 1425 1425 1426 1426 1426 1426 1426 1425 1425 1425 1425 1424 1424 1424 1423 1423 1423 1422 1421 1421 1420 1420 1420
1440 1437 1435 1432 1430 1428 1426 1425 1424 1423 1422 1422 1422 1422 1423 1423 1424 1424 1425 1425 1425 1425 1425 1426 1425 1426 1425 1425 1425 1424 1424 1424 1423 1423 1422 1422 1422 1421 1421 1420 1420 1419 1419 1418
1438 1435 1432 1431 1429 1427 1426 1425 1424 1423 1422 1422 1422 1423 1423 1423 1424 1424 1424 1425 1425 1425 1425 1425 1425 1425 1425 1424 1424 1423 1423 1422 1422 1421 1421 1420 1420 1420 1420 1419 1418 1418 1417 1417
1437 1435 1433 1431 1429 1427 1425 1424 1424 1423 1423 1423 1423 1423 1423 1423 1424 1424 1424 1425 1425 1425 1425 1425 1425 1425 1424 1424 1423 1422 1422 1421 1421 1420 1419 1419 1419 1418 1418 1417 1417 1416 1415 1414
1436 1433 1432 1430 1428 1426 1425 1424 1424 1424 1424 1423 1423 1423 1423 1424 1424 1424 1424 1424 1424 1424 1425 1425 1424 1424 1423 1423 1422 1421 1420 1420 1419 1419 1418 1417 1417 1416 1416 1415 1414 1414 1413 1412
1435 1433 1431 1429 1427 1426 1425 1424 1424 1423 1424 1423 1423 1423 1423 1423 1423 1423 1423 1423 1424 1424 1424 1424 1423 1423 1422 1421 1421 1420 1419 1418 1417 1417 1416 1415 1415 1414 1413 1413 1412 1411 1410 1409
1436 1433 1431 1429 1427 1426 1425 1424 1423 1423 1423 1423 1423 1422 1423 1423 1423 1423 1422 1422 1423 1423 1423 1422 1421 1421 1420 1419 1419 1418 1417 1416 1415 1414 1414 1413 1412 1411 1410 1410 1409 1408 1407 1406
1437 1434 1432 1430 1428 1427 1426 1425 1424 1423 1423 1423 1422 1422 1422 1422 1422 1422 1422 1422 1421 1421 1421 1420 1419 1419 1418 1417 1416 1415 1415 1414 1413 1412 1411 1410 1410 1408 1407 1407 1406 1405 1403 1402
1438 1436 1434 1432 1430 1428 1426 1425 1425 1424 1423 1423 1422 1422 1421 1421 1421 1420 1420 1420 1420 1419 1418 1418 1417 1416 1416 1415 1414 1413 1412 1411 1410 1409 1408 1407 1406 1405 1404 1403 1402 1401 1400 1398
1438 1436 1435 1433 1431 1429 1427 1426 1425 1425 1424 1423 1422 1421 1421 1420 1419 1419 1419 1418 1417 1417 1416 1415 1415 1414 1413 1412 1411 1410 1409 1408 1407 1406 1405 1404 1403 1402 1401 1400 1398 1397 1396 1394
1438 1437 1435 1433 1431 1430 1428 1427 1426 1425 1423 1422 1422 1421 1420 1419 1418 1417 1417 1416 1415 1414 1413 1413 1412 1411 1410 1408 1407 1406 1405 1405 1404 1402 1401 1400 1399 1398 1397 1396 1394 1393 1392 1390
1438 1437 1435 1433 1432 1430 1429 1427 1425 1424 1423 1421 1420 1420 1419 1418 1416 1415 1414 1413 1412 1412 1411 1410 1409 1407 1406 1405 1404 1403 1402 1401 1400 1399 1398 1397 1395 1394 1393 1392 1390 1389 1388 1386
1438 1436 1435 1433 1432 1430 1428 1427 1425 1423 1422 1420 1419 1418 1417 1416 1414 1413 1412 1411 1410 1408 1407 1406 1405 1404 1403 1401 1400 1399 1398 1397 1396 1395 1394 1393 1391 1390 1389 1388 1386 1385 1383 1382